Overview Statistics Trail Chart Weather Telemetry Raw packets
 

This is the latest recevied weather packets stored in our database for station/object OK2ZA-6. If no packets are shown the sender has not sent any weather packets the latest 10 day(s).

<< 33 34 35 36 37 38 39 >>
Time Temp. Humidity Pressure Rain* Wind** Luminosity Snow
1788201004 20° C 61% 1016.4 hPa 0 mm - - -
1788200404 20.56° C 60% 1016.2 hPa 0 mm - - -
1788199804 21.11° C 58% 1016 hPa 0 mm - - -
1788199204 21.67° C 56% 1016 hPa 0 mm - - -
1788198604 21.67° C 54% 1016 hPa 0 mm - - -
1788198004 22.22° C 53% 1015.8 hPa 0 mm - - -
1788197404 22.78° C 51% 1015.7 hPa 0 mm - - -
1788196805 23.33° C 50% 1015.6 hPa 0 mm - - -
1788196204 23.33° C 50% 1015.6 hPa 0 mm - - -
1788195604 23.89° C 48% 1015.7 hPa 0 mm - - -
1788195004 23.89° C 48% 1015.7 hPa 0 mm - - -
1788194404 24.44° C 48% 1015.8 hPa 0 mm - - -
1788193804 24.44° C 48% 1015.9 hPa 0 mm - - -
1788193204 24.44° C 48% 1015.8 hPa 0 mm - - -
1788192604 24.44° C 47% 1015.9 hPa 0 mm - - -
1788192014 24.44° C 47% 1015.9 hPa 0 mm - - -
1788191404 25.56° C 47% 1015.8 hPa 0 mm - - -
1788190804 25.56° C 46% 1015.8 hPa 0 mm - - -
1788190204 25.56° C 46% 1015.8 hPa 0 mm - - -
1788189604 25.56° C 45% 1015.8 hPa 0 mm - - -
1788189004 25.56° C 46% 1015.9 hPa 0 mm - - -
1788188405 25.56° C 47% 1015.9 hPa 0 mm - - -
1788187804 25.56° C 47% 1015.9 hPa 0 mm - - -
1788187204 25.56° C 48% 1015.8 hPa 0 mm - - -
1788186604 26.11° C 48% 1015.8 hPa 0 mm - - -

* Rain latest hour (hover to see other rain measurements)
** Current wind speed in m/s (hover to see current wind gust speed)